Back to catalog

COSMOS 2318

GLONASS

LostNavigationMEO
NORAD 23622·PAYLOAD·🇷🇺 Russia

Launched Jul 24, 1995 from Baikonur Cosmodrome

Loading…

Next Passes (next 24 hours)

TLE

StaleSource: Space-Track

Epoch: Aug 1, 2026, 05:08 UTC

1 23622U 95037C   26213.21455514  .00000080  00000-0  00000+0 0  9997
2 23622  65.4732 201.3814 0014359  62.4849  53.6792  2.13101994241197

Track COSMOS 2318 in real time with AllMySat

Download on the App Store